MDT,Max TemperatureF,Mean TemperatureF,Min TemperatureF,Max Dew PointF,MeanDew PointF,Min DewpointF,Max Humidity, Mean Humidity, Min Humidity, Max Sea Level PressureIn, Mean Sea Level PressureIn, Min Sea Level PressureIn, Max VisibilityMiles, Mean VisibilityMiles, Min VisibilityMiles, Max Wind SpeedMPH, Mean Wind SpeedMPH, Max Gust SpeedMPH,PrecipitationIn, CloudCover, Events, WindDirDegrees
2013-10-1,64,52,39,32,26,14,66,41,14,30.29,30.26,30.21,10,10,10,17,6,21,0.00,0,,187
2013-10-2,64,52,39,27,20,14,49,31,15,30.27,30.21,30.15,10,10,10,13,4,18,0.00,0,,155
2013-10-3,55,44,30,34,25,19,100,40,26,30.16,30.03,29.93,10,10,2,22,7,38,0.00,3,Rain-Snow,150
2013-10-4,33,28,23,30,22,16,100,78,48,30.31,30.16,30.02,10,9,1,20,8,25,0.01,4,Snow,257
2013-10-5,46,34,23,23,19,3,93,63,17,30.45,30.37,30.30,10,10,10,17,3,22,0.01,1,,251
2013-10-6,57,42,28,28,18,0,69,44,11,30.47,30.45,30.41,10,10,10,17,4,22,0.00,0,,176
2013-10-7,62,48,35,32,25,19,70,43,22,30.45,30.37,30.28,10,10,10,16,6,22,0.00,0,,172
2013-10-8,59,54,50,27,20,12,40,28,19,30.28,30.15,30.07,10,10,10,23,6,36,0.00,1,,136
2013-10-9,53,45,37,36,23,18,93,41,26,30.10,30.05,30.00,10,10,5,29,7,45,0.05,3,Rain,130
2013-10-10,44,37,30,37,32,28,100,91,61,30.02,29.92,29.84,10,6,0,21,6,33,0.27,8,Rain-Snow-Thunderstorm,127
2013-10-11,41,36,30,34,31,28,100,90,70,30.22,30.11,29.99,10,9,2,13,2,,0.40,7,Snow,212
2013-10-12,46,37,28,30,27,23,93,69,40,30.26,30.22,30.18,10,10,10,14,4,21,0.00,0,,124
2013-10-13,51,46,41,36,31,23,76,56,43,30.23,30.16,30.07,10,10,7,26,7,39,0.02,6,Rain-Thunderstorm,146
2013-10-14,44,38,32,32,28,21,93,73,42,30.24,30.16,30.07,10,10,2,17,6,26,0.00,6,Snow-Thunderstorm,242
2013-10-15,39,32,26,32,24,14,100,76,36,30.21,30.16,30.11,10,9,0,13,3,17,0.00,6,Fog-Snow,167
2013-10-16,37,32,28,30,26,23,100,80,60,30.24,30.19,30.14,10,8,0,13,3,17,0.03,4,Fog,233
2013-10-17,44,35,26,21,15,3,80,48,21,30.23,30.17,30.12,10,10,10,14,4,21,0.00,1,,181
2013-10-18,41,34,28,21,14,7,64,47,24,30.31,30.20,30.10,10,10,10,16,5,25,0.00,2,Snow,272
2013-10-19,48,37,26,19,16,10,64,47,27,30.31,30.27,30.23,10,10,10,15,6,18,0.00,0,,150
2013-10-20,46,38,30,21,18,14,64,47,27,30.23,30.15,30.10,10,10,10,16,6,22,0.00,2,,159
2013-10-21,48,39,30,23,16,1,75,45,16,30.36,30.26,30.16,10,10,10,16,4,25,0.00,1,,143
2013-10-22,57,44,32,27,19,14,70,44,20,30.39,30.36,30.33,10,10,10,16,6,21,0.00,0,,160
2013-10-23,57,44,32,27,22,14,70,46,21,30.37,30.34,30.29,10,10,10,15,6,18,0.00,0,,159
2013-10-24,59,47,35,32,24,14,70,48,17,30.38,30.35,30.30,10,10,10,15,6,20,0.00,3,Rain,126
2013-10-25,50,42,33,36,32,27,100,77,50,30.38,30.36,30.34,10,9,1,9,2,,0.09,6,Rain-Snow-Thunderstorm,136
2013-10-26,53,42,32,36,32,23,100,78,30,30.47,30.42,30.37,10,10,4,13,3,21,0.00,3,Thunderstorm,126
2013-10-27,51,42,33,32,28,19,93,62,28,30.41,30.22,30.03,10,10,10,21,6,26,0.00,1,,133
2013-10-28,48,44,41,28,22,16,57,43,32,30.02,29.98,29.93,10,10,10,31,9,47,0.00,3,,142
2013-10-29,42,36,30,32,26,16,100,72,34,30.02,29.97,29.90,10,6,0,33,14,46,0.00,6,Snow-Thunderstorm,137
2013-10-30,32,28,23,28,22,16,100,78,55,30.02,29.99,29.95,10,9,0,10,3,,0.10,6,Snow-Thunderstorm,242
2013-10-31,32,28,23,25,22,19,93,80,60,30.20,30.12,30.03,10,10,4,13,4,16,0.03,6,Snow,250